Regional Weather Roundup
Issued by NWS Charleston, WV

Home | Current Version | Previous Version | Graphics & Text | Print | Product List | Glossary On
Versions: 1 2 3 4 5 6 7 8 9 10 11 12 13 14 15 16 17 18 19 20 21 22 23 24 25 26 27 28 29 30 31 32 33 34 35 36 37 38 39 40 41 42 43 44 45 46 47 48 49 50
000
ASUS41 KRLX 190010
RWRRLX
West Virginia Regional Weather Roundup
National Weather Service Charleston WV
800 PM EDT SAT APR 18 2015

Note: "fair" indicates few or no clouds below 12,000 feet with no
significant weather and/or obstructions to visibility.

WVZ003-190100-
Northern Panhandle of West Virginia

CITY           SKY/WX    TMP DP  RH WIND       PRES   REMARKS
WHEELING       MOCLDY    70  41  34 N9        30.02R
$$

WVZ009-190100-
Northwest West Virginia

CITY           SKY/WX    TMP DP  RH WIND       PRES   REMARKS
PARKERSBURG    MOCLDY    73  41  31 N7        30.01R
$$

WVZ006-190100-
Western West Virginia

CITY           SKY/WX    TMP DP  RH WIND       PRES   REMARKS
HUNTINGTON     PTCLDY    73  44  35 NE6       29.94F
$$

WVZ015-190100-
West Central West Virginia

CITY           SKY/WX    TMP DP  RH WIND       PRES   REMARKS
CHARLESTON     PTCLDY    74  44  34 NE6       29.95S
$$

WVZ022-031-190100-
North Central West Virginia

CITY           SKY/WX    TMP DP  RH WIND       PRES   REMARKS
CLARKSBURG     MOCLDY    67  44  43 NE6       30.00S
MORGANTOWN     MOCLDY    71  37  28 NE3       30.02S
$$

WVZ025-035-042-045-190100-
Southern West Virginia

CITY           SKY/WX    TMP DP  RH WIND       PRES   REMARKS
BECKLEY        MOCLDY    71  43  36 N7        29.99F
LOGAN            N/A     73  46  38 CALM      29.92F
BLUEFIELD      MOCLDY    73  41  31 SE5       30.00S
LEWISBURG      MOCLDY    70  42  36 CALM      30.00S
$$

WVZ047-190100-
Northern Mountains of West Virginia

CITY           SKY/WX    TMP DP  RH WIND       PRES   REMARKS
ELKINS         PTCLDY    68  39  34 N6        30.03R
$$

WVZ052-190100-
Eastern Panhandle of West Virginia

CITY           SKY/WX    TMP DP  RH WIND       PRES   REMARKS
MARTINSBURG    CLOUDY    69  48  47 S3        29.97R
PETERSBURG     MOCLDY    67  47  49 W6        30.00R
$$



USA.gov is the U.S. government's official web portal to all federal, state and local government web resources and services.